Time,TemperatureF,DewpointF,PressureIn,WindDirection,WindDirectionDegrees,WindSpeedMPH,WindSpeedGustMPH,Humidity,HourlyPrecipIn,Conditions,Clouds,dailyrainin,SolarRadiationWatts/m^2,SoftwareType,DateUTC
2013-11-05 00:01:00,58.4,53.9,30.16,ENE,76,3.0,3.0,85,0.00,,---,0.00,0.00,VWS V14.00,2013-11-05 06:01:00,
2013-11-05 00:06:00,58.4,53.9,30.16,ENE,76,1.0,2.0,85,0.00,,---,0.00,0.00,VWS V14.00,2013-11-05 06:06:00,
2013-11-05 00:11:00,58.3,53.8,30.16,ENE,76,1.0,2.0,85,0.00,,---,0.00,0.00,VWS V14.00,2013-11-05 06:11:00,
2013-11-05 00:16:00,58.3,53.8,30.16,ENE,76,2.0,2.0,85,0.00,,---,0.00,0.00,VWS V14.00,2013-11-05 06:16:00,
2013-11-05 00:21:00,58.3,53.8,30.16,East,89,2.0,3.0,85,0.00,,---,0.00,0.00,VWS V14.00,2013-11-05 06:21:00,
2013-11-05 00:26:00,58.4,53.9,30.16,East,87,3.0,3.0,85,0.00,,---,0.00,0.00,VWS V14.00,2013-11-05 06:26:00,
2013-11-05 00:31:00,58.5,54.0,30.16,East,88,2.0,2.0,85,0.00,,---,0.00,0.00,VWS V14.00,2013-11-05 06:31:00,
2013-11-05 00:36:00,58.6,53.8,30.16,East,91,1.0,2.0,84,0.00,,---,0.00,0.00,VWS V14.00,2013-11-05 06:36:00,
2013-11-05 00:41:00,58.7,53.9,30.16,East,94,2.0,3.0,84,0.00,,---,0.00,0.00,VWS V14.00,2013-11-05 06:41:00,
2013-11-05 00:46:00,58.8,54.0,30.16,East,96,2.0,3.0,84,0.00,,---,0.00,0.00,VWS V14.00,2013-11-05 06:46:00,
2013-11-05 00:51:00,58.8,54.0,30.16,ESE,105,2.0,2.0,84,0.00,,---,0.00,0.00,VWS V14.00,2013-11-05 06:51:00,
2013-11-05 00:56:00,58.9,53.8,30.16,ESE,107,3.0,3.0,83,0.00,,---,0.00,0.00,VWS V14.00,2013-11-05 06:56:00,
2013-11-05 01:01:00,59.0,53.8,30.16,ESE,105,5.0,5.0,83,0.00,,---,0.00,0.00,VWS V14.00,2013-11-05 07:01:00,
2013-11-05 01:06:00,59.1,53.6,30.16,ESE,104,2.0,3.0,82,0.00,,---,0.00,0.00,VWS V14.00,2013-11-05 07:06:00,
2013-11-05 01:11:00,59.1,53.6,30.16,SE,132,3.0,3.0,82,0.00,,---,0.00,0.00,VWS V14.00,2013-11-05 07:11:00,
2013-11-05 01:16:00,59.3,53.8,30.16,ESE,107,2.0,2.0,82,0.00,,---,0.00,0.00,VWS V14.00,2013-11-05 07:16:00,
2013-11-05 01:21:00,59.4,53.6,30.16,SE,125,2.0,2.0,81,0.00,,---,0.00,0.00,VWS V14.00,2013-11-05 07:21:00,
2013-11-05 01:26:00,59.5,53.7,30.16,ESE,123,3.0,3.0,81,0.00,,---,0.00,0.00,VWS V14.00,2013-11-05 07:26:00,
2013-11-05 01:31:00,59.7,53.5,30.16,ESE,123,3.0,3.0,80,0.00,,---,0.00,0.00,VWS V14.00,2013-11-05 07:31:00,
2013-11-05 01:36:00,59.8,53.6,30.16,ESE,119,2.0,2.0,80,0.00,,---,0.00,0.00,VWS V14.00,2013-11-05 07:36:00,
2013-11-05 01:41:00,59.9,53.7,30.16,SE,125,2.0,3.0,80,0.00,,---,0.00,0.00,VWS V14.00,2013-11-05 07:41:00,
2013-11-05 01:46:00,59.9,53.7,30.16,ESE,120,2.0,2.0,80,0.00,,---,0.00,0.00,VWS V14.00,2013-11-05 07:46:00,
2013-11-05 01:51:00,59.9,53.7,30.16,ESE,114,2.0,2.0,80,0.00,,---,0.00,0.00,VWS V14.00,2013-11-05 07:51:00,
2013-11-05 01:56:00,59.9,53.4,30.16,ESE,116,2.0,2.0,79,0.00,,---,0.00,0.00,VWS V14.00,2013-11-05 07:56:00,
2013-11-05 02:01:00,59.9,53.4,30.16,ESE,117,3.0,3.0,79,0.00,,---,0.00,0.00,VWS V14.00,2013-11-05 08:01:00,
2013-11-05 02:06:00,59.9,53.4,30.15,ESE,115,2.0,2.0,79,0.00,,---,0.00,0.00,VWS V14.00,2013-11-05 08:06:00,
2013-11-05 02:11:00,59.9,53.4,30.16,ESE,109,1.0,1.0,79,0.00,,---,0.00,0.00,VWS V14.00,2013-11-05 08:11:00,
2013-11-05 02:16:00,59.8,53.3,30.15,ESE,108,2.0,2.0,79,0.00,,---,0.00,0.00,VWS V14.00,2013-11-05 08:16:00,
2013-11-05 02:21:00,59.7,53.2,30.15,ESE,105,3.0,3.0,79,0.00,,---,0.00,0.00,VWS V14.00,2013-11-05 08:21:00,
2013-11-05 02:26:00,59.5,53.0,30.15,ESE,103,2.0,2.0,79,0.00,,---,0.00,0.00,VWS V14.00,2013-11-05 08:26:00,
2013-11-05 02:31:00,59.4,52.9,30.15,ESE,102,2.0,2.0,79,0.00,,---,0.00,0.00,VWS V14.00,2013-11-05 08:31:00,
2013-11-05 02:36:00,59.1,52.9,30.15,ESE,102,2.0,2.0,80,0.00,,---,0.00,0.00,VWS V14.00,2013-11-05 08:36:00,
2013-11-05 02:41:00,59.0,52.8,30.15,ESE,102,1.0,1.0,80,0.00,,---,0.00,0.00,VWS V14.00,2013-11-05 08:41:00,
2013-11-05 02:46:00,58.9,53.1,30.15,ESE,108,2.0,3.0,81,0.00,,---,0.00,0.00,VWS V14.00,2013-11-05 08:46:00,
2013-11-05 02:51:00,58.7,52.9,30.15,ESE,108,1.0,2.0,81,0.00,,---,0.00,0.00,VWS V14.00,2013-11-05 08:51:00,
2013-11-05 02:56:00,58.5,52.7,30.15,ESE,108,2.0,3.0,81,0.00,,---,0.00,0.00,VWS V14.00,2013-11-05 08:56:00,
2013-11-05 03:01:00,58.3,52.5,30.14,ESE,108,1.0,1.0,81,0.00,,---,0.00,0.00,VWS V14.00,2013-11-05 09:01:00,
2013-11-05 03:06:00,58.1,52.3,30.15,ESE,108,0.0,1.0,81,0.00,,---,0.00,0.00,VWS V14.00,2013-11-05 09:06:00,
2013-11-05 03:11:00,57.9,52.1,30.14,ESE,108,1.0,2.0,81,0.00,,---,0.00,0.00,VWS V14.00,2013-11-05 09:11:00,
2013-11-05 03:16:00,57.6,52.2,30.14,ESE,108,1.0,2.0,82,0.00,,---,0.00,0.00,VWS V14.00,2013-11-05 09:16:00,
2013-11-05 03:21:00,57.3,51.9,30.14,ESE,108,2.0,2.0,82,0.00,,---,0.00,0.00,VWS V14.00,2013-11-05 09:21:00,
2013-11-05 03:26:00,57.2,52.1,30.14,ESE,108,1.0,2.0,83,0.00,,---,0.00,0.00,VWS V14.00,2013-11-05 09:26:00,
2013-11-05 03:31:00,57.2,52.4,30.14,East,98,1.0,3.0,84,0.00,,---,0.00,0.00,VWS V14.00,2013-11-05 09:31:00,
2013-11-05 03:36:00,57.4,52.9,30.14,East,86,3.0,3.0,85,0.00,,---,0.00,0.00,VWS V14.00,2013-11-05 09:36:00,
2013-11-05 03:41:00,57.6,53.1,30.14,ESE,103,1.0,3.0,85,0.00,,---,0.00,0.00,VWS V14.00,2013-11-05 09:41:00,
2013-11-05 03:46:00,57.9,53.1,30.14,ESE,113,3.0,3.0,84,0.00,,---,0.00,0.00,VWS V14.00,2013-11-05 09:46:00,
2013-11-05 03:51:00,58.1,53.0,30.14,ESE,105,3.0,4.0,83,0.00,,---,0.00,0.00,VWS V14.00,2013-11-05 09:51:00,
2013-11-05 03:56:00,58.3,53.2,30.14,ESE,107,3.0,3.0,83,0.00,,---,0.00,0.00,VWS V14.00,2013-11-05 09:56:00,
2013-11-05 04:01:00,58.4,52.9,30.14,East,88,2.0,2.0,82,0.00,,---,0.00,0.00,VWS V14.00,2013-11-05 10:01:00,
2013-11-05 04:06:00,58.5,53.0,30.14,East,96,2.0,5.0,82,0.00,,---,0.00,0.00,VWS V14.00,2013-11-05 10:06:00,
2013-11-05 04:11:00,58.5,53.0,30.14,ESE,104,3.0,4.0,82,0.00,,---,0.00,0.00,VWS V14.00,2013-11-05 10:11:00,
2013-11-05 04:16:00,58.6,52.8,30.14,East,90,3.0,5.0,81,0.00,,---,0.00,0.00,VWS V14.00,2013-11-05 10:16:00,
2013-11-05 04:21:00,58.6,52.8,30.14,East,87,2.0,3.0,81,0.00,,---,0.00,0.00,VWS V14.00,2013-11-05 10:21:00,
2013-11-05 04:26:00,58.7,52.9,30.14,East,92,2.0,5.0,81,0.00,,---,0.00,0.00,VWS V14.00,2013-11-05 10:26:00,
2013-11-05 04:31:00,58.8,53.0,30.14,ESE,109,4.0,5.0,81,0.00,,---,0.00,0.00,VWS V14.00,2013-11-05 10:31:00,
2013-11-05 04:36:00,58.9,53.1,30.14,ESE,103,3.0,7.0,81,0.00,,---,0.00,0.00,VWS V14.00,2013-11-05 10:36:00,
2013-11-05 04:41:00,59.1,52.9,30.14,ESE,107,3.0,5.0,80,0.00,,---,0.00,0.00,VWS V14.00,2013-11-05 10:41:00,
2013-11-05 04:46:00,59.3,53.1,30.14,East,94,3.0,8.0,80,0.00,,---,0.00,0.00,VWS V14.00,2013-11-05 10:46:00,
2013-11-05 04:51:00,59.4,53.2,30.14,ESE,109,3.0,5.0,80,0.00,,---,0.00,0.00,VWS V14.00,2013-11-05 10:51:00,
2013-11-05 04:56:00,59.5,53.3,30.14,ESE,109,5.0,6.0,80,0.00,,---,0.00,0.00,VWS V14.00,2013-11-05 10:56:00,
2013-11-05 05:01:00,59.6,53.1,30.14,ESE,110,3.0,4.0,79,0.00,,---,0.00,0.00,VWS V14.00,2013-11-05 11:01:00,
2013-11-05 05:06:00,59.6,53.1,30.14,ESE,119,7.0,7.0,79,0.00,,---,0.00,0.00,VWS V14.00,2013-11-05 11:06:00,
2013-11-05 05:11:00,59.6,53.1,30.13,East,100,8.0,8.0,79,0.00,,---,0.00,0.00,VWS V14.00,2013-11-05 11:11:00,
2013-11-05 05:16:00,59.7,53.2,30.13,ESE,106,4.0,7.0,79,0.00,,---,0.00,0.00,VWS V14.00,2013-11-05 11:16:00,
2013-11-05 05:21:00,59.7,53.2,30.13,East,87,6.0,8.0,79,0.00,,---,0.00,0.00,VWS V14.00,2013-11-05 11:21:00,
2013-11-05 05:26:00,59.8,53.3,30.13,ESE,122,4.0,5.0,79,0.00,,---,0.00,0.00,VWS V14.00,2013-11-05 11:26:00,
2013-11-05 05:31:00,59.8,53.3,30.13,ESE,123,5.0,8.0,79,0.00,,---,0.00,0.00,VWS V14.00,2013-11-05 11:31:00,
2013-11-05 05:36:00,59.9,53.4,30.13,East,99,3.0,10.0,79,0.00,,---,0.00,0.00,VWS V14.00,2013-11-05 11:36:00,
2013-11-05 05:41:00,60.0,53.1,30.13,ESE,111,5.0,7.0,78,0.00,,---,0.00,0.00,VWS V14.00,2013-11-05 11:41:00,
2013-11-05 05:46:00,60.0,53.1,30.13,East,93,6.0,8.0,78,0.00,,---,0.00,0.00,VWS V14.00,2013-11-05 11:46:00,
2013-11-05 05:51:00,60.0,53.1,30.13,ESE,102,2.0,11.0,78,0.00,,---,0.00,0.00,VWS V14.00,2013-11-05 11:51:00,
2013-11-05 05:56:00,60.1,53.2,30.13,ESE,109,7.0,8.0,78,0.00,,---,0.00,0.00,VWS V14.00,2013-11-05 11:56:00,
2013-11-05 06:01:00,60.1,53.2,30.14,ESE,121,5.0,7.0,78,0.00,,---,0.00,0.00,VWS V14.00,2013-11-05 12:01:00,
2013-11-05 06:06:00,60.1,53.2,30.14,East,101,5.0,7.0,78,0.00,,---,0.00,0.00,VWS V14.00,2013-11-05 12:06:00,
2013-11-05 06:11:00,60.2,53.3,30.15,ESE,103,4.0,7.0,78,0.00,,---,0.00,0.00,VWS V14.00,2013-11-05 12:11:00,
2013-11-05 06:16:00,60.2,53.3,30.14,ESE,103,3.0,8.0,78,0.00,,---,0.00,0.00,VWS V14.00,2013-11-05 12:16:00,
2013-11-05 06:21:00,60.2,53.3,30.15,ESE,112,4.0,5.0,78,0.00,,---,0.00,0.00,VWS V14.00,2013-11-05 12:21:00,
2013-11-05 06:26:00,60.2,53.0,30.15,ESE,119,3.0,6.0,77,0.00,,---,0.00,5.00,VWS V14.00,2013-11-05 12:26:00,
2013-11-05 06:31:00,60.2,53.3,30.16,East,101,3.0,6.0,78,0.00,,---,0.00,0.00,VWS V14.00,2013-11-05 12:31:00,
2013-11-05 06:36:00,60.2,53.3,30.16,East,90,2.0,3.0,78,0.00,,---,0.00,0.00,VWS V14.00,2013-11-05 12:36:00,
2013-11-05 06:41:00,60.2,53.3,30.16,ENE,77,2.0,3.0,78,0.00,,---,0.00,5.00,VWS V14.00,2013-11-05 12:41:00,
2013-11-05 06:46:00,60.1,53.2,30.17,East,98,5.0,5.0,78,0.00,,---,0.00,9.00,VWS V14.00,2013-11-05 12:46:00,
2013-11-05 06:51:00,60.1,53.2,30.17,East,88,2.0,3.0,78,0.00,,---,0.00,25.00,VWS V14.00,2013-11-05 12:51:00,
2013-11-05 06:56:00,60.1,53.2,30.17,East,84,1.0,3.0,78,0.00,,---,0.00,30.00,VWS V14.00,2013-11-05 12:56:00,
2013-11-05 07:01:00,60.3,53.4,30.17,East,81,5.0,5.0,78,0.00,,---,0.00,39.00,VWS V14.00,2013-11-05 13:01:00,
2013-11-05 07:06:00,60.4,53.5,30.17,East,83,1.0,2.0,78,0.00,,---,0.00,46.00,VWS V14.00,2013-11-05 13:06:00,
2013-11-05 07:11:00,60.6,53.7,30.18,East,98,2.0,5.0,78,0.00,,---,0.00,86.00,VWS V14.00,2013-11-05 13:11:00,
2013-11-05 07:16:00,60.9,54.0,30.17,East,92,8.0,9.0,78,0.00,,---,0.00,107.00,VWS V14.00,2013-11-05 13:16:00,
2013-11-05 07:21:00,61.2,53.9,30.17,ESE,103,5.0,7.0,77,0.00,,---,0.00,74.00,VWS V14.00,2013-11-05 13:21:00,
2013-11-05 07:26:00,61.2,53.9,30.17,ESE,103,4.0,5.0,77,0.00,,---,0.00,60.00,VWS V14.00,2013-11-05 13:26:00,
2013-11-05 07:31:00,61.2,53.9,30.17,ESE,103,4.0,5.0,77,0.00,,---,0.00,56.00,VWS V14.00,2013-11-05 13:31:00,
2013-11-05 07:36:00,61.2,53.9,30.18,East,100,6.0,7.0,77,0.00,,---,0.00,60.00,VWS V14.00,2013-11-05 13:36:00,
2013-11-05 07:41:00,61.4,54.1,30.18,ESE,120,4.0,6.0,77,0.00,,---,0.00,60.00,VWS V14.00,2013-11-05 13:41:00,
2013-11-05 07:46:00,61.6,54.3,30.18,ESE,117,3.0,5.0,77,0.00,,---,0.00,77.00,VWS V14.00,2013-11-05 13:46:00,
2013-11-05 07:51:00,61.7,54.4,30.18,East,96,3.0,6.0,77,0.00,,---,0.00,102.00,VWS V14.00,2013-11-05 13:51:00,
2013-11-05 07:56:00,61.9,54.6,30.18,East,96,5.0,7.0,77,0.00,,---,0.00,111.00,VWS V14.00,2013-11-05 13:56:00,
2013-11-05 08:01:00,62.2,54.9,30.18,ESE,102,8.0,9.0,77,0.00,,---,0.00,125.00,VWS V14.00,2013-11-05 14:01:00,
2013-11-05 08:06:00,62.4,54.8,30.18,ESE,105,5.0,8.0,76,0.00,,---,0.00,137.00,VWS V14.00,2013-11-05 14:06:00,
2013-11-05 08:11:00,62.5,54.8,30.18,East,89,8.0,10.0,76,0.00,,---,0.00,128.00,VWS V14.00,2013-11-05 14:11:00,
2013-11-05 08:16:00,62.7,55.4,30.18,ESE,121,8.0,8.0,77,0.00,,---,0.00,114.00,VWS V14.00,2013-11-05 14:16:00,
2013-11-05 08:21:00,62.8,55.1,30.18,ESE,102,9.0,9.0,76,0.00,,---,0.00,121.00,VWS V14.00,2013-11-05 14:21:00,
2013-11-05 08:26:00,63.2,55.5,30.18,ESE,106,3.0,6.0,76,0.00,,---,0.00,162.00,VWS V14.00,2013-11-05 14:26:00,
2013-11-05 08:31:00,63.5,55.8,30.18,ESE,112,5.0,9.0,76,0.00,,---,0.00,213.00,VWS V14.00,2013-11-05 14:31:00,
2013-11-05 08:36:00,64.3,56.6,30.18,ESE,109,7.0,8.0,76,0.00,,---,0.00,213.00,VWS V14.00,2013-11-05 14:36:00,
2013-11-05 08:41:00,64.6,56.1,30.18,ESE,105,9.0,10.0,74,0.00,,---,0.00,181.00,VWS V14.00,2013-11-05 14:41:00,
2013-11-05 08:46:00,64.6,56.1,30.18,East,94,8.0,11.0,74,0.00,,---,0.00,163.00,VWS V14.00,2013-11-05 14:46:00,
2013-11-05 08:51:00,64.6,56.1,30.18,ESE,105,8.0,10.0,74,0.00,,---,0.00,172.00,VWS V14.00,2013-11-05 14:51:00,
2013-11-05 08:56:00,64.6,56.5,30.18,East,82,7.0,9.0,75,0.00,,---,0.00,146.00,VWS V14.00,2013-11-05 14:56:00,
2013-11-05 09:01:00,64.6,56.1,30.18,ESE,105,10.0,11.0,74,0.00,,---,0.00,107.00,VWS V14.00,2013-11-05 15:01:00,
2013-11-05 09:06:00,64.5,56.4,30.18,ESE,112,8.0,9.0,75,0.00,,---,0.00,181.00,VWS V14.00,2013-11-05 15:06:00,
2013-11-05 09:11:00,64.8,56.7,30.18,East,92,6.0,10.0,75,0.00,,---,0.00,221.00,VWS V14.00,2013-11-05 15:11:00,
2013-11-05 09:16:00,65.1,57.0,30.18,SE,125,4.0,5.0,75,0.00,,---,0.00,250.00,VWS V14.00,2013-11-05 15:16:00,
2013-11-05 09:21:00,65.5,57.0,30.18,East,91,6.0,8.0,74,0.00,,---,0.00,338.00,VWS V14.00,2013-11-05 15:21:00,
2013-11-05 09:26:00,66.2,57.7,30.18,ESE,113,7.0,10.0,74,0.00,,---,0.00,687.00,VWS V14.00,2013-11-05 15:26:00,
2013-11-05 09:31:00,67.2,57.9,30.18,ESE,115,8.0,9.0,72,0.00,,---,0.00,715.00,VWS V14.00,2013-11-05 15:31:00,
2013-11-05 09:36:00,67.5,57.8,30.18,ESE,123,7.0,9.0,71,0.00,,---,0.00,237.00,VWS V14.00,2013-11-05 15:36:00,
2013-11-05 09:41:00,67.4,57.7,30.19,ESE,107,4.0,5.0,71,0.00,,---,0.00,260.00,VWS V14.00,2013-11-05 15:41:00,
2013-11-05 09:46:00,67.4,57.7,30.19,SE,130,7.0,9.0,71,0.00,,---,0.00,272.00,VWS V14.00,2013-11-05 15:46:00,
2013-11-05 09:51:00,67.6,57.9,30.19,ESE,119,9.0,10.0,71,0.00,,---,0.00,306.00,VWS V14.00,2013-11-05 15:51:00,
2013-11-05 09:56:00,67.7,58.0,30.19,SE,126,6.0,9.0,71,0.00,,---,0.00,334.00,VWS V14.00,2013-11-05 15:56:00,
2013-11-05 10:01:00,68.0,58.7,30.19,SE,135,4.0,8.0,72,0.00,,---,0.00,691.00,VWS V14.00,2013-11-05 16:01:00,
2013-11-05 10:06:00,68.4,58.6,30.19,SE,132,7.0,11.0,71,0.00,,---,0.00,281.00,VWS V14.00,2013-11-05 16:06:00,
2013-11-05 10:11:00,68.6,58.0,30.18,SE,124,7.0,12.0,69,0.00,,---,0.00,512.00,VWS V14.00,2013-11-05 16:11:00,
2013-11-05 10:16:00,68.7,58.1,30.19,SE,127,9.0,9.0,69,0.00,,---,0.00,392.00,VWS V14.00,2013-11-05 16:16:00,
2013-11-05 10:21:00,68.8,58.6,30.19,SE,126,10.0,11.0,70,0.00,,---,0.00,399.00,VWS V14.00,2013-11-05 16:21:00,
2013-11-05 10:26:00,68.9,58.7,30.19,SE,130,8.0,10.0,70,0.00,,---,0.00,406.00,VWS V14.00,2013-11-05 16:26:00,
2013-11-05 10:31:00,69.2,58.6,30.18,ESE,106,9.0,11.0,69,0.00,,---,0.00,392.00,VWS V14.00,2013-11-05 16:31:00,
2013-11-05 10:36:00,69.0,58.4,30.18,SE,130,10.0,10.0,69,0.00,,---,0.00,325.00,VWS V14.00,2013-11-05 16:36:00,
2013-11-05 10:41:00,68.8,58.2,30.18,ESE,117,5.0,10.0,69,0.00,,---,0.00,316.00,VWS V14.00,2013-11-05 16:41:00,
2013-11-05 10:46:00,69.0,58.8,30.18,SE,128,5.0,8.0,70,0.00,,---,0.00,401.00,VWS V14.00,2013-11-05 16:46:00,
2013-11-05 10:51:00,69.2,59.0,30.18,SE,139,7.0,9.0,70,0.00,,---,0.00,299.00,VWS V14.00,2013-11-05 16:51:00,
2013-11-05 10:56:00,69.2,59.0,30.17,SE,133,7.0,11.0,70,0.00,,---,0.00,264.00,VWS V14.00,2013-11-05 16:56:00,
2013-11-05 11:01:00,69.2,59.0,30.17,SE,146,3.0,7.0,70,0.00,,---,0.00,260.00,VWS V14.00,2013-11-05 17:01:00,
2013-11-05 11:06:00,69.3,59.5,30.17,SSE,159,6.0,6.0,71,0.00,,---,0.00,348.00,VWS V14.00,2013-11-05 17:06:00,
2013-11-05 11:11:00,69.7,59.5,30.17,SE,145,5.0,7.0,70,0.00,,---,0.00,345.00,VWS V14.00,2013-11-05 17:11:00,
2013-11-05 11:16:00,70.0,60.2,30.17,SE,128,7.0,9.0,71,0.00,,---,0.00,431.00,VWS V14.00,2013-11-05 17:16:00,
2013-11-05 11:21:00,70.4,60.2,30.16,SE,142,8.0,8.0,70,0.00,,---,0.00,360.00,VWS V14.00,2013-11-05 17:21:00,
2013-11-05 11:26:00,70.5,59.8,30.16,SE,127,9.0,12.0,69,0.00,,---,0.00,352.00,VWS V14.00,2013-11-05 17:26:00,
2013-11-05 11:31:00,70.6,60.0,30.16,SE,145,5.0,8.0,69,0.00,,---,0.00,385.00,VWS V14.00,2013-11-05 17:31:00,
2013-11-05 11:36:00,70.8,60.1,30.15,SE,140,7.0,9.0,69,0.00,,---,0.00,367.00,VWS V14.00,2013-11-05 17:36:00,
2013-11-05 11:41:00,71.1,60.8,30.15,SE,128,6.0,9.0,70,0.00,,---,0.00,431.00,VWS V14.00,2013-11-05 17:41:00,
2013-11-05 11:46:00,71.9,60.8,30.15,SE,131,10.0,11.0,68,0.00,,---,0.00,506.00,VWS V14.00,2013-11-05 17:46:00,
2013-11-05 11:51:00,72.6,61.4,30.15,SE,143,8.0,12.0,68,0.00,,---,0.00,846.00,VWS V14.00,2013-11-05 17:51:00,
2013-11-05 11:56:00,73.0,60.5,30.14,SE,146,7.0,9.0,65,0.00,,---,0.00,376.00,VWS V14.00,2013-11-05 17:56:00,
2013-11-05 12:01:00,72.8,60.8,30.14,SE,130,8.0,14.0,66,0.00,,---,0.00,439.00,VWS V14.00,2013-11-05 18:01:00,
2013-11-05 12:06:00,72.6,61.0,30.14,SE,129,6.0,8.0,67,0.00,,---,0.00,390.00,VWS V14.00,2013-11-05 18:06:00,
2013-11-05 12:11:00,72.9,61.3,30.13,ESE,102,8.0,11.0,67,0.00,,---,0.00,770.00,VWS V14.00,2013-11-05 18:11:00,
2013-11-05 12:16:00,73.0,61.0,30.13,ESE,119,11.0,11.0,66,0.00,,---,0.00,285.00,VWS V14.00,2013-11-05 18:16:00,
2013-11-05 12:21:00,72.8,61.2,30.13,SSE,151,11.0,12.0,67,0.00,,---,0.00,304.00,VWS V14.00,2013-11-05 18:21:00,
2013-11-05 12:26:00,72.8,61.2,30.13,SE,138,8.0,10.0,67,0.00,,---,0.00,429.00,VWS V14.00,2013-11-05 18:26:00,
2013-11-05 12:31:00,72.9,61.7,30.13,SE,127,9.0,11.0,68,0.00,,---,0.00,858.00,VWS V14.00,2013-11-05 18:31:00,
2013-11-05 12:36:00,73.7,62.1,30.12,ESE,103,10.0,11.0,67,0.00,,---,0.00,540.00,VWS V14.00,2013-11-05 18:36:00,
2013-11-05 12:41:00,74.6,62.5,30.12,SE,144,8.0,11.0,66,0.00,,---,0.00,724.00,VWS V14.00,2013-11-05 18:41:00,
2013-11-05 12:46:00,74.9,61.9,30.12,SE,133,8.0,13.0,64,0.00,,---,0.00,304.00,VWS V14.00,2013-11-05 18:46:00,
2013-11-05 12:51:00,74.9,62.3,30.11,South,178,7.0,8.0,65,0.00,,---,0.00,304.00,VWS V14.00,2013-11-05 18:51:00,
2013-11-05 12:55:00,74.7,61.7,30.11,SE,143,8.0,10.0,64,0.00,,---,0.00,260.00,VWS V14.00,2013-11-05 18:55:00,
2013-11-05 13:00:00,74.4,61.9,30.11,SE,140,11.0,13.0,65,0.00,,---,0.00,408.00,VWS V14.00,2013-11-05 19:00:00,
2013-11-05 13:05:00,74.3,61.8,30.11,ESE,107,7.0,8.0,65,0.00,,---,0.00,271.00,VWS V14.00,2013-11-05 19:05:00,
2013-11-05 13:10:00,74.2,61.7,30.11,SE,128,7.0,8.0,65,0.00,,---,0.00,202.00,VWS V14.00,2013-11-05 19:10:00,
2013-11-05 13:15:00,74.2,62.1,30.11,SE,138,9.0,9.0,66,0.00,,---,0.00,218.00,VWS V14.00,2013-11-05 19:15:00,
2013-11-05 13:20:00,74.2,61.7,30.10,SSE,161,8.0,10.0,65,0.00,,---,0.00,279.00,VWS V14.00,2013-11-05 19:20:00,
2013-11-05 13:25:00,74.2,62.1,30.10,SE,130,5.0,9.0,66,0.00,,---,0.00,244.00,VWS V14.00,2013-11-05 19:25:00,
2013-11-05 13:30:00,74.3,62.2,30.10,ESE,105,12.0,12.0,66,0.00,,---,0.00,281.00,VWS V14.00,2013-11-05 19:30:00,
2013-11-05 13:35:00,74.4,62.3,30.10,SE,136,10.0,10.0,66,0.00,,---,0.00,316.00,VWS V14.00,2013-11-05 19:35:00,
2013-11-05 13:40:00,74.7,62.6,30.10,SE,128,7.0,12.0,66,0.00,,---,0.00,299.00,VWS V14.00,2013-11-05 19:40:00,
2013-11-05 13:45:00,74.8,62.3,30.09,SE,144,6.0,6.0,65,0.00,,---,0.00,181.00,VWS V14.00,2013-11-05 19:45:00,
2013-11-05 13:50:00,74.8,62.7,30.09,SSE,149,4.0,6.0,66,0.00,,---,0.00,174.00,VWS V14.00,2013-11-05 19:50:00,
2013-11-05 13:55:00,74.7,62.6,30.09,SE,124,8.0,9.0,66,0.00,,---,0.00,199.00,VWS V14.00,2013-11-05 19:55:00,
2013-11-05 14:00:00,74.9,63.2,30.09,SE,128,7.0,9.0,67,0.00,,---,0.00,311.00,VWS V14.00,2013-11-05 20:00:00,
2013-11-05 14:05:00,75.1,62.5,30.09,ESE,115,11.0,11.0,65,0.00,,---,0.00,234.00,VWS V14.00,2013-11-05 20:05:00,
2013-11-05 14:10:00,75.5,63.4,30.08,ESE,122,4.0,4.0,66,0.00,,---,0.00,468.00,VWS V14.00,2013-11-05 20:10:00,
2013-11-05 14:15:00,75.9,63.3,30.08,ESE,105,10.0,11.0,65,0.00,,---,0.00,190.00,VWS V14.00,2013-11-05 20:15:00,
2013-11-05 14:20:00,76.0,62.5,30.08,SE,146,11.0,11.0,63,0.00,,---,0.00,199.00,VWS V14.00,2013-11-05 20:20:00,
2013-11-05 14:25:00,75.9,62.0,30.08,ESE,108,10.0,10.0,62,0.00,,---,0.00,197.00,VWS V14.00,2013-11-05 20:25:00,
2013-11-05 14:30:00,75.8,62.8,30.08,SSE,160,8.0,8.0,64,0.00,,---,0.00,434.00,VWS V14.00,2013-11-05 20:30:00,
2013-11-05 14:35:00,76.0,62.5,30.08,SE,129,6.0,7.0,63,0.00,,---,0.00,443.00,VWS V14.00,2013-11-05 20:35:00,
2013-11-05 14:40:00,76.1,62.6,30.08,ESE,116,4.0,5.0,63,0.00,,---,0.00,204.00,VWS V14.00,2013-11-05 20:40:00,
2013-11-05 14:45:00,76.2,62.7,30.08,SE,134,5.0,7.0,63,0.00,,---,0.00,125.00,VWS V14.00,2013-11-05 20:45:00,
2013-11-05 14:50:00,76.0,62.5,30.08,SSE,147,9.0,10.0,63,0.00,,---,0.00,162.00,VWS V14.00,2013-11-05 20:50:00,
2013-11-05 14:55:00,75.8,62.8,30.08,SSE,148,5.0,10.0,64,0.00,,---,0.00,135.00,VWS V14.00,2013-11-05 20:55:00,
2013-11-05 15:00:00,75.7,62.7,30.08,South,178,5.0,5.0,64,0.00,,---,0.00,250.00,VWS V14.00,2013-11-05 21:00:00,
2013-11-05 15:05:00,76.0,63.4,30.08,ESE,121,8.0,8.0,65,0.00,,---,0.00,171.00,VWS V14.00,2013-11-05 21:05:00,
2013-11-05 15:10:00,75.9,62.9,30.08,SSE,155,9.0,9.0,64,0.00,,---,0.00,141.00,VWS V14.00,2013-11-05 21:10:00,
2013-11-05 15:15:00,75.7,62.7,30.08,SSE,152,10.0,12.0,64,0.00,,---,0.00,121.00,VWS V14.00,2013-11-05 21:15:00,
2013-11-05 15:20:00,75.5,62.9,30.07,SE,130,6.0,8.0,65,0.00,,---,0.00,156.00,VWS V14.00,2013-11-05 21:20:00,
2013-11-05 15:25:00,75.3,62.7,30.07,SE,137,7.0,8.0,65,0.00,,---,0.00,104.00,VWS V14.00,2013-11-05 21:25:00,
2013-11-05 15:30:00,75.3,63.2,30.07,ESE,116,7.0,7.0,66,0.00,,---,0.00,130.00,VWS V14.00,2013-11-05 21:30:00,
2013-11-05 15:35:00,75.2,63.1,30.07,SSE,150,6.0,6.0,66,0.00,,---,0.00,134.00,VWS V14.00,2013-11-05 21:35:00,
2013-11-05 15:40:00,75.2,63.1,30.07,ESE,108,4.0,4.0,66,0.00,,---,0.00,274.00,VWS V14.00,2013-11-05 21:40:00,
2013-11-05 15:45:00,75.4,63.3,30.07,SE,137,5.0,5.0,66,0.00,,---,0.00,246.00,VWS V14.00,2013-11-05 21:45:00,
2013-11-05 15:50:00,75.4,62.8,30.07,ESE,123,9.0,9.0,65,0.00,,---,0.00,116.00,VWS V14.00,2013-11-05 21:50:00,
2013-11-05 15:55:00,75.2,62.6,30.07,SE,128,8.0,8.0,65,0.00,,---,0.00,56.00,VWS V14.00,2013-11-05 21:55:00,
2013-11-05 16:00:00,75.0,62.5,30.07,ESE,122,5.0,7.0,65,0.00,,---,0.00,40.00,VWS V14.00,2013-11-05 22:00:00,
2013-11-05 16:05:00,74.7,62.6,30.07,ESE,123,4.0,4.0,66,0.00,,---,0.00,42.00,VWS V14.00,2013-11-05 22:05:00,
2013-11-05 16:10:00,74.6,62.9,30.07,SE,134,4.0,4.0,67,0.00,,---,0.00,56.00,VWS V14.00,2013-11-05 22:10:00,
2013-11-05 16:15:00,74.4,62.7,30.07,SE,142,8.0,9.0,67,0.00,,---,0.00,76.00,VWS V14.00,2013-11-05 22:15:00,
2013-11-05 16:20:00,74.3,62.6,30.07,SE,124,4.0,7.0,67,0.00,,---,0.00,56.00,VWS V14.00,2013-11-05 22:20:00,
2013-11-05 16:25:00,74.2,62.5,30.07,SE,132,5.0,7.0,67,0.00,,---,0.00,42.00,VWS V14.00,2013-11-05 22:25:00,
2013-11-05 16:30:00,74.1,62.9,30.07,ESE,119,3.0,5.0,68,0.00,,---,0.00,76.00,VWS V14.00,2013-11-05 22:30:00,
2013-11-05 16:35:00,74.0,62.8,30.07,ESE,116,5.0,7.0,68,0.00,,---,0.00,44.00,VWS V14.00,2013-11-05 22:35:00,
2013-11-05 16:40:00,73.9,62.7,30.07,ESE,123,5.0,7.0,68,0.00,,---,0.00,42.00,VWS V14.00,2013-11-05 22:40:00,
2013-11-05 16:45:00,73.7,62.9,30.07,ESE,112,3.0,5.0,69,0.00,,---,0.00,39.00,VWS V14.00,2013-11-05 22:45:00,
2013-11-05 16:50:00,73.6,62.8,30.07,ESE,119,3.0,4.0,69,0.00,,---,0.00,33.00,VWS V14.00,2013-11-05 22:50:00,
2013-11-05 16:55:00,73.4,62.6,30.08,ESE,113,3.0,4.0,69,0.00,,---,0.00,21.00,VWS V14.00,2013-11-05 22:55:00,
2013-11-05 17:00:00,73.2,62.8,30.07,ESE,115,2.0,4.0,70,0.00,,---,0.00,16.00,VWS V14.00,2013-11-05 23:00:00,
2013-11-05 17:05:00,73.0,62.7,30.07,ESE,121,3.0,4.0,70,0.00,,---,0.00,11.00,VWS V14.00,2013-11-05 23:05:00,
2013-11-05 17:10:00,72.8,62.5,30.07,ESE,116,2.0,4.0,70,0.00,,---,0.00,5.00,VWS V14.00,2013-11-05 23:10:00,
2013-11-05 17:15:00,72.5,62.6,30.07,ESE,119,3.0,4.0,71,0.00,,---,0.00,0.00,VWS V14.00,2013-11-05 23:15:00,
2013-11-05 17:20:00,72.3,62.8,30.07,ESE,123,3.0,5.0,72,0.00,,---,0.00,0.00,VWS V14.00,2013-11-05 23:20:00,
2013-11-05 17:25:00,72.0,62.5,30.08,ESE,119,2.0,3.0,72,0.00,,---,0.00,0.00,VWS V14.00,2013-11-05 23:25:00,
2013-11-05 17:30:00,71.8,62.3,30.08,ESE,111,2.0,2.0,72,0.00,,---,0.00,0.00,VWS V14.00,2013-11-05 23:30:00,
2013-11-05 17:35:00,71.5,62.4,30.07,ESE,111,3.0,3.0,73,0.00,,---,0.00,0.00,VWS V14.00,2013-11-05 23:35:00,
2013-11-05 17:40:00,71.3,62.2,30.08,ESE,112,3.0,3.0,73,0.00,,---,0.00,0.00,VWS V14.00,2013-11-05 23:40:00,
2013-11-05 17:45:00,71.0,62.3,30.08,ESE,113,2.0,3.0,74,0.00,,---,0.00,0.00,VWS V14.00,2013-11-05 23:45:00,
2013-11-05 17:50:00,70.7,62.0,30.08,ESE,113,2.0,4.0,74,0.00,,---,0.00,0.00,VWS V14.00,2013-11-05 23:50:00,
2013-11-05 17:55:00,70.5,61.8,30.08,ESE,113,2.0,4.0,74,0.00,,---,0.00,0.00,VWS V14.00,2013-11-05 23:55:00,
2013-11-05 18:00:00,70.2,61.9,30.08,ESE,123,3.0,4.0,75,0.00,,---,0.00,0.00,VWS V14.00,2013-11-06 00:00:00,
2013-11-05 18:05:00,70.1,61.8,30.08,ESE,113,2.0,3.0,75,0.00,,---,0.00,0.00,VWS V14.00,2013-11-06 00:05:00,
2013-11-05 18:10:00,69.9,62.0,30.08,ESE,109,3.0,3.0,76,0.00,,---,0.00,0.00,VWS V14.00,2013-11-06 00:10:00,
2013-11-05 18:15:00,69.8,61.5,30.08,ESE,106,4.0,4.0,75,0.00,,---,0.00,0.00,VWS V14.00,2013-11-06 00:15:00,
2013-11-05 18:20:00,69.8,61.5,30.08,SE,128,3.0,5.0,75,0.00,,---,0.00,0.00,VWS V14.00,2013-11-06 00:20:00,
2013-11-05 18:25:00,69.8,61.5,30.08,ESE,117,4.0,7.0,75,0.00,,---,0.00,0.00,VWS V14.00,2013-11-06 00:25:00,
2013-11-05 18:30:00,69.8,61.5,30.09,SE,130,3.0,6.0,75,0.00,,---,0.00,0.00,VWS V14.00,2013-11-06 00:30:00,
2013-11-05 18:35:00,69.8,61.5,30.09,East,101,3.0,5.0,75,0.00,,---,0.00,0.00,VWS V14.00,2013-11-06 00:35:00,
2013-11-05 18:40:00,69.7,61.4,30.08,SE,140,4.0,7.0,75,0.00,,---,0.00,0.00,VWS V14.00,2013-11-06 00:40:00,
2013-11-05 18:45:00,69.6,61.0,30.09,ESE,123,4.0,5.0,74,0.00,,---,0.00,0.00,VWS V14.00,2013-11-06 00:45:00,
2013-11-05 18:50:00,69.5,61.2,30.09,SSE,157,4.0,7.0,75,0.00,,---,0.00,0.00,VWS V14.00,2013-11-06 00:50:00,
2013-11-05 18:55:00,69.4,61.1,30.09,ESE,109,4.0,5.0,75,0.00,,---,0.00,0.00,VWS V14.00,2013-11-06 00:55:00,
2013-11-05 19:00:00,69.3,61.0,30.09,SE,130,3.0,7.0,75,0.00,,---,0.00,0.00,VWS V14.00,2013-11-06 01:00:00,
2013-11-05 19:05:00,69.2,61.0,30.09,SE,134,5.0,7.0,75,0.00,,---,0.00,0.00,VWS V14.00,2013-11-06 01:05:00,
2013-11-05 19:10:00,69.0,60.8,30.09,ESE,121,4.0,5.0,75,0.00,,---,0.00,0.00,VWS V14.00,2013-11-06 01:10:00,
2013-11-05 19:15:00,68.9,60.7,30.09,SE,127,4.0,5.0,75,0.00,,---,0.00,0.00,VWS V14.00,2013-11-06 01:15:00,
2013-11-05 19:20:00,68.7,60.5,30.09,SE,136,4.0,5.0,75,0.00,,---,0.00,0.00,VWS V14.00,2013-11-06 01:20:00,
2013-11-05 19:25:00,68.6,60.7,30.09,SE,124,3.0,5.0,76,0.00,,---,0.00,0.00,VWS V14.00,2013-11-06 01:25:00,
2013-11-05 19:30:00,68.5,60.6,30.09,SE,126,4.0,7.0,76,0.00,,---,0.00,0.00,VWS V14.00,2013-11-06 01:30:00,
2013-11-05 19:35:00,68.4,60.5,30.09,SE,134,4.0,6.0,76,0.00,,---,0.00,0.00,VWS V14.00,2013-11-06 01:35:00,
2013-11-05 19:40:00,68.2,60.3,30.09,SE,127,4.0,4.0,76,0.00,,---,0.00,0.00,VWS V14.00,2013-11-06 01:40:00,
2013-11-05 19:45:00,68.1,60.3,30.09,SE,126,6.0,6.0,76,0.00,,---,0.00,0.00,VWS V14.00,2013-11-06 01:45:00,
2013-11-05 19:50:00,67.9,60.4,30.09,SE,127,4.0,5.0,77,0.00,,---,0.00,0.00,VWS V14.00,2013-11-06 01:50:00,
2013-11-05 19:55:00,67.8,60.3,30.10,SE,126,3.0,5.0,77,0.00,,---,0.00,0.00,VWS V14.00,2013-11-06 01:55:00,
2013-11-05 20:00:00,67.6,60.1,30.09,SE,128,4.0,5.0,77,0.00,,---,0.00,0.00,VWS V14.00,2013-11-06 02:00:00,
2013-11-05 20:05:00,67.5,60.0,30.10,SE,128,4.0,5.0,77,0.00,,---,0.00,0.00,VWS V14.00,2013-11-06 02:05:00,
2013-11-05 20:10:00,67.3,60.2,30.09,ESE,121,4.0,4.0,78,0.00,,---,0.00,0.00,VWS V14.00,2013-11-06 02:10:00,
2013-11-05 20:15:00,67.2,60.1,30.10,ESE,122,3.0,4.0,78,0.00,,---,0.00,0.00,VWS V14.00,2013-11-06 02:15:00,
2013-11-05 20:20:00,67.1,60.0,30.10,SE,127,3.0,4.0,78,0.00,,---,0.00,0.00,VWS V14.00,2013-11-06 02:20:00,
2013-11-05 20:25:00,67.0,59.9,30.10,SE,132,3.0,3.0,78,0.00,,---,0.00,0.00,VWS V14.00,2013-11-06 02:25:00,
2013-11-05 20:30:00,66.9,59.8,30.10,SE,128,2.0,4.0,78,0.00,,---,0.00,0.00,VWS V14.00,2013-11-06 02:30:00,
2013-11-05 20:35:00,66.7,60.0,30.10,ESE,119,4.0,4.0,79,0.00,,---,0.00,0.00,VWS V14.00,2013-11-06 02:35:00,
2013-11-05 20:40:00,66.5,59.8,30.10,SE,130,3.0,4.0,79,0.00,,---,0.00,0.00,VWS V14.00,2013-11-06 02:40:00,
2013-11-05 20:45:00,66.3,59.6,30.10,ESE,121,2.0,4.0,79,0.00,,---,0.00,0.00,VWS V14.00,2013-11-06 02:45:00,
2013-11-05 20:50:00,66.2,59.5,30.10,ESE,121,3.0,4.0,79,0.00,,---,0.00,0.00,VWS V14.00,2013-11-06 02:50:00,
2013-11-05 20:55:00,66.0,59.7,30.10,ESE,119,3.0,4.0,80,0.00,,---,0.00,0.00,VWS V14.00,2013-11-06 02:55:00,
2013-11-05 21:00:00,65.9,59.6,30.10,SE,128,3.0,3.0,80,0.00,,---,0.00,0.00,VWS V14.00,2013-11-06 03:00:00,
2013-11-05 21:05:00,65.7,59.4,30.10,SE,125,2.0,3.0,80,0.00,,---,0.00,0.00,VWS V14.00,2013-11-06 03:05:00,
2013-11-05 21:10:00,65.6,59.3,30.10,SE,134,3.0,4.0,80,0.00,,---,0.00,0.00,VWS V14.00,2013-11-06 03:10:00,
2013-11-05 21:15:00,65.4,59.4,30.10,SE,126,3.0,4.0,81,0.00,,---,0.00,0.00,VWS V14.00,2013-11-06 03:15:00,
2013-11-05 21:20:00,65.3,59.3,30.10,SE,133,1.0,3.0,81,0.00,,---,0.00,0.00,VWS V14.00,2013-11-06 03:20:00,
2013-11-05 21:25:00,65.2,59.2,30.10,SE,128,2.0,3.0,81,0.00,,---,0.00,0.00,VWS V14.00,2013-11-06 03:25:00,
2013-11-05 21:30:00,65.0,59.0,30.10,SE,127,2.0,3.0,81,0.00,,---,0.00,0.00,VWS V14.00,2013-11-06 03:30:00,
2013-11-05 21:35:00,64.9,58.9,30.10,SE,127,2.0,2.0,81,0.00,,---,0.00,0.00,VWS V14.00,2013-11-06 03:35:00,
2013-11-05 21:40:00,64.8,59.2,30.10,ESE,122,2.0,3.0,82,0.00,,---,0.00,0.00,VWS V14.00,2013-11-06 03:40:00,
2013-11-05 21:45:00,64.7,59.1,30.10,ESE,115,2.0,3.0,82,0.00,,---,0.00,0.00,VWS V14.00,2013-11-06 03:45:00,
2013-11-05 21:50:00,64.6,59.0,30.10,ESE,118,3.0,4.0,82,0.00,,---,0.00,0.00,VWS V14.00,2013-11-06 03:50:00,
2013-11-05 21:55:00,64.6,59.0,30.10,ESE,113,4.0,5.0,82,0.00,,---,0.00,0.00,VWS V14.00,2013-11-06 03:55:00,
2013-11-05 22:00:00,64.6,59.0,30.10,SE,124,3.0,5.0,82,0.00,,---,0.00,0.00,VWS V14.00,2013-11-06 04:00:00,
2013-11-05 22:05:00,64.6,59.0,30.10,ESE,114,4.0,4.0,82,0.00,,---,0.00,0.00,VWS V14.00,2013-11-06 04:05:00,
2013-11-05 22:10:00,64.7,59.1,30.10,ESE,121,3.0,4.0,82,0.00,,---,0.00,0.00,VWS V14.00,2013-11-06 04:10:00,
2013-11-05 22:15:00,64.6,59.0,30.10,SE,125,2.0,4.0,82,0.00,,---,0.00,0.00,VWS V14.00,2013-11-06 04:15:00,
2013-11-05 22:20:00,64.5,58.9,30.10,SE,136,3.0,4.0,82,0.00,,---,0.00,0.00,VWS V14.00,2013-11-06 04:20:00,
2013-11-05 22:25:00,64.5,58.9,30.10,SE,129,3.0,5.0,82,0.00,,---,0.00,0.00,VWS V14.00,2013-11-06 04:25:00,
2013-11-05 22:30:00,64.4,58.8,30.10,ESE,112,3.0,4.0,82,0.00,,---,0.00,0.00,VWS V14.00,2013-11-06 04:30:00,
2013-11-05 22:35:00,64.4,58.8,30.09,ESE,111,4.0,7.0,82,0.00,,---,0.00,0.00,VWS V14.00,2013-11-06 04:35:00,
2013-11-05 22:40:00,64.4,58.8,30.09,SE,131,2.0,4.0,82,0.00,,---,0.00,0.00,VWS V14.00,2013-11-06 04:40:00,
2013-11-05 22:45:00,64.4,58.8,30.09,SE,136,4.0,5.0,82,0.00,,---,0.00,0.00,VWS V14.00,2013-11-06 04:45:00,
2013-11-05 22:50:00,64.3,58.7,30.09,ESE,120,4.0,4.0,82,0.00,,---,0.00,0.00,VWS V14.00,2013-11-06 04:50:00,
2013-11-05 22:55:00,64.3,58.7,30.09,ESE,123,4.0,4.0,82,0.00,,---,0.00,0.00,VWS V14.00,2013-11-06 04:55:00,
2013-11-05 23:00:00,64.3,59.0,30.09,ESE,119,3.0,4.0,83,0.00,,---,0.00,0.00,VWS V14.00,2013-11-06 05:00:00,
2013-11-05 23:01:00,64.3,59.0,30.09,ESE,119,3.0,4.0,83,0.00,,---,0.00,0.00,VWS V14.00,2013-11-06 05:01:00,
2013-11-05 23:06:00,64.2,58.9,30.09,SE,126,2.0,3.0,83,0.00,,---,0.00,0.00,VWS V14.00,2013-11-06 05:06:00,
2013-11-05 23:11:00,64.1,58.8,30.09,SE,143,2.0,5.0,83,0.00,,---,0.00,0.00,VWS V14.00,2013-11-06 05:11:00,
2013-11-05 23:16:00,64.1,58.8,30.09,SE,139,2.0,3.0,83,0.00,,---,0.00,0.00,VWS V14.00,2013-11-06 05:16:00,
2013-11-05 23:21:00,64.0,58.7,30.09,SE,134,4.0,4.0,83,0.00,,---,0.00,0.00,VWS V14.00,2013-11-06 05:21:00,
2013-11-05 23:26:00,64.0,58.7,30.09,ESE,118,3.0,3.0,83,0.00,,---,0.00,0.00,VWS V14.00,2013-11-06 05:26:00,
2013-11-05 23:31:00,64.0,58.7,30.09,SE,126,4.0,4.0,83,0.00,,---,0.00,0.00,VWS V14.00,2013-11-06 05:31:00,
2013-11-05 23:36:00,63.9,58.6,30.09,SE,139,2.0,4.0,83,0.00,,---,0.00,0.00,VWS V14.00,2013-11-06 05:36:00,
2013-11-05 23:41:00,63.8,58.5,30.09,SE,126,2.0,4.0,83,0.00,,---,0.00,0.00,VWS V14.00,2013-11-06 05:41:00,
2013-11-05 23:46:00,63.7,58.5,30.09,SSE,153,1.0,1.0,83,0.00,,---,0.00,0.00,VWS V14.00,2013-11-06 05:46:00,
2013-11-05 23:51:00,63.6,58.3,30.09,SE,128,1.0,3.0,83,0.00,,---,0.00,0.00,VWS V14.00,2013-11-06 05:51:00,
2013-11-05 23:56:00,63.4,58.5,30.09,SE,131,2.0,3.0,84,0.00,,---,0.00,0.00,VWS V14.00,2013-11-06 05:56:00,